STARLINK-1961

decayed
NORAD ID: 47562 Int'l Des: 2021-009 Owner: SPXS Country: US Constellation: starlink
LEOCIRCULAR
Group

About STARLINK-1961

Description loading...

Altitude History

Altitude vs Time

uPlot chart will show altitude changes over time

Two-Line Element Set

1 47562U 21009Q 25043.52230726 .12159569 12300-4 76125-3 0 9999
2 47562 53.0237 286.6929 0006219 204.8338 223.2737 16.41161504223231
Epoch: Feb 12, 2025 • Age: 4925 hours

Current Status

Position data unavailable
Launch Date Feb 4, 2021
Age 4.5 years
Decay Date Feb 12, 2025
Type internet

Technical Details

Classification Payload
Mass 260.00 kg
Dry Mass 248.00 kg
Total Mass 260.00 kg
Length 0.20 m
Diameter 2.80 m
Span 9.00 m
Shape Box + pan
Manufacturer SPXS
Bus Type Starlink
Phase Status Unknown Transfer Status
Owner/State SPXS/US

Large Constellations

Loading constellations...